Location: Unspecified
(52.1384°N, 8.6525°W)
Time: 10:32:22
(UTC+00:00)

XW-2F - Visible Passes

Search period start: 17 January 2021 00:00
Search period end: 27 January 2021 00:00
Orbit: 500 x 520 km, 97.5° (Epoch: 17 January)

Date Brightness Start Highest point End Pass type
(mag) Time Alt. Az. Time Alt. Az. Time Alt. Az.
17 Jan ? 05:56:04 10° NE 05:58:56 20° E 06:01:49 10° SE visible
17 Jan ? 07:29:29 10° N 07:33:05 43° WNW 07:36:41 10° SW visible
17 Jan ? 18:14:14 10° S 18:17:44 40° W 18:21:18 10° NNW visible
18 Jan ? 05:40:12 10° NE 05:42:17 14° E 05:44:22 10° ESE visible
18 Jan ? 07:12:53 10° N 07:16:39 64° WNW 07:20:24 10° SSW visible
18 Jan ? 17:57:31 10° S 18:01:11 60° W 18:04:55 10° NNW visible
19 Jan ? 06:56:21 10° NNE 07:00:10 85° ESE 07:03:58 10° SSW visible
19 Jan ? 17:40:57 10° SSE 17:44:40 89° ENE 17:48:27 10° NNW visible
20 Jan ? 06:39:53 10° NNE 06:43:39 57° E 06:47:23 10° S visible
20 Jan ? 19:00:22 10° SW 19:02:32 15° W 19:04:42 10° NW visible
21 Jan ? 06:23:31 10° NNE 06:27:05 38° E 06:30:38 10° SSE visible
21 Jan ? 18:42:59 10° SW 18:45:52 21° W 18:48:48 10° NW visible
22 Jan ? 06:07:15 10° NE 06:10:29 26° E 06:13:43 10° SSE visible
22 Jan ? 07:41:03 10° N 07:44:30 33° WNW 07:47:55 10° SW visible
22 Jan ? 18:25:55 10° SSW 18:29:14 30° W 18:32:36 10° NNW visible
23 Jan ? 05:51:09 10° NE 05:53:51 18° E 05:56:31 10° SE visible
23 Jan ? 07:24:23 10° N 07:28:03 48° WNW 07:31:43 10° SW visible
23 Jan ? 18:09:04 10° S 18:12:39 45° W 18:16:18 10° NNW visible
24 Jan ? 05:35:26 10° ENE 05:37:10 13° E 05:38:53 10° ESE visible
24 Jan ? 07:07:47 10° N 07:11:36 73° WNW 07:15:22 10° SSW visible
24 Jan ? 17:52:22 10° S 17:56:06 69° WSW 17:59:53 10° NNW visible
25 Jan ? 06:51:16 10° NNE 06:55:05 76° ESE 06:58:53 10° S visible
25 Jan ? 19:12:47 10° WSW 19:14:05 11° W 19:15:22 10° WNW visible
26 Jan ? 06:34:49 10° NNE 06:38:33 50° E 06:42:14 10° S visible
26 Jan ? 18:54:54 10° SW 18:57:22 17° W 18:59:51 10° NW visible
